EDT,Max TemperatureF,Mean TemperatureF,Min TemperatureF,Max Dew PointF,MeanDew PointF,Min DewpointF,Max Humidity, Mean Humidity, Min Humidity, Max Sea Level PressureIn, Mean Sea Level PressureIn, Min Sea Level PressureIn, Max VisibilityMiles, Mean VisibilityMiles, Min VisibilityMiles, Max Wind SpeedMPH, Mean Wind SpeedMPH, Max Gust SpeedMPH,PrecipitationIn, CloudCover, Events, WindDirDegrees
2013-5-1,75,72,69,72,69,66,100,90,81,30.00,29.95,29.92,10,8,2,20,13,,0.34,6,Rain,116
2013-5-2,79,74,68,70,68,66,96,87,69,29.96,29.89,29.81,10,10,8,21,14,,0.02,6,Rain,86
2013-5-3,81,76,71,70,68,65,91,79,60,29.82,29.77,29.72,10,10,7,17,11,18,0.06,4,Rain,173
2013-5-4,78,74,69,68,66,64,90,79,64,29.82,29.74,29.70,10,10,7,20,8,26,0.00,6,Rain,320
2013-5-5,75,70,66,66,58,49,90,67,41,29.94,29.87,29.80,10,10,6,17,10,24,0.00,3,Rain,324
2013-5-6,73,70,66,64,57,53,76,61,51,30.01,29.97,29.90,10,10,10,13,8,23,0.00,2,,310
2013-5-7,75,70,66,62,57,55,71,61,53,30.06,30.02,29.98,10,10,10,15,6,22,0.00,2,,283
2013-5-8,78,72,70,63,60,55,76,63,50,30.14,30.09,30.04,10,10,10,13,4,20,0.00,0,,302
2013-5-9,84,77,70,65,62,54,78,64,37,30.16,30.11,30.08,10,10,10,9,4,,0.00,0,,8
2013-5-10,87,78,71,72,68,62,91,71,44,30.14,30.06,30.00,10,9,5,13,8,,0.00,1,,190
2013-5-11,84,80,75,74,72,68,94,83,58,30.06,30.02,30.00,10,8,2,15,7,21,0.00,4,,193
2013-5-12,82,78,75,74,71,65,91,77,60,30.05,30.00,29.94,10,9,5,14,5,18,0.00,2,,281
2013-5-13,84,77,71,68,61,47,79,61,36,30.13,30.08,30.01,10,10,10,18,6,24,0.00,0,,354
2013-5-14,84,75,68,61,51,43,64,45,25,30.22,30.16,30.11,10,10,10,15,10,,0.00,0,,51
2013-5-15,87,79,72,62,59,55,64,52,35,30.21,30.15,30.06,10,10,10,15,10,,0.00,0,,87
2013-5-16,88,79,71,68,63,59,78,63,39,30.13,30.06,30.00,10,10,10,18,12,,0.00,0,,150
2013-5-17,87,80,73,69,65,63,76,64,46,30.09,30.06,30.02,10,10,10,14,9,,0.00,0,,178
2013-5-18,87,81,75,72,68,58,87,72,38,30.11,30.06,30.01,10,10,10,13,10,17,0.00,1,,166
2013-5-19,87,80,75,71,67,63,82,65,46,30.09,30.04,29.98,10,10,10,10,4,,0.00,1,,298
2013-5-20,91,83,75,72,69,66,79,68,44,30.07,30.02,29.97,10,10,10,25,8,32,0.00,2,Thunderstorm,126
2013-5-21,88,80,73,73,70,63,91,78,44,30.04,29.98,29.92,10,9,0,22,10,31,0.53,2,Fog-Rain,117
2013-5-22,86,80,73,74,70,67,87,76,53,29.97,29.93,29.88,10,10,4,12,8,,0.05,4,Rain,140
2013-5-23,88,82,77,72,71,69,84,72,59,30.01,29.97,29.91,10,10,10,15,7,20,0.00,1,,319
2013-5-24,91,84,77,74,70,62,88,66,40,30.07,30.03,29.98,10,10,10,17,8,20,0.00,1,,342
2013-5-25,89,84,78,71,67,62,77,60,40,30.17,30.12,30.06,10,10,10,22,14,,0.00,0,,85
2013-5-26,86,80,73,65,61,56,73,55,36,30.21,30.16,30.11,10,10,10,22,14,,0.00,0,,93
2013-5-27,87,80,73,69,65,63,74,61,46,30.18,30.13,30.04,10,10,10,22,15,,0.00,0,,101
2013-5-28,89,82,75,74,72,69,85,75,57,30.14,30.08,30.02,10,10,8,22,16,34,0.05,2,Rain,106
2013-5-29,89,82,75,73,72,70,91,75,53,30.09,30.06,30.02,10,10,9,25,17,30,0.01,2,Rain-Thunderstorm,110
2013-5-30,88,82,77,74,72,70,88,76,61,30.08,30.05,30.01,10,10,9,28,17,36,0.00,4,,111
2013-5-31,88,82,75,75,72,70,87,76,59,30.08,30.04,30.00,10,9,1,18,15,,0.50,5,Rain,127